Flag for Switzerland Weather past 2 weeks in Altdorf, Uri, Switzerland

Now
N/A

Overcast.


Feels Like: N/A
Forecast: 32 / 52 °F
Wind: N/A

Location: Altdorf

Current Time: Dec 21, 2014 at 10:16:05 PM

Latest Report: Dec 21, 2014 at 7:00 PM


Visibility: 13 mi

Pressure: N/A

Humidity: N/A

Dew point: N/A

Location of AltdorfLocation

Historic Weather in Altdorf — Graph

°F

Altdorf temperature yesterday

Maximum temperature yesterday: 50 °F (at 1:00 PM)
Minimum temperature yesterday: 43 °F (at 7:00 AM)
Average temperature yesterday: 45 °F

Past Weeks' High & Low Weather Summary

 TemperatureHumidityPressure
High59 °F (Dec 13, 1:00 PM)100% (Dec 18, 10:00 PM)30.62 "Hg (Dec 18, 10:00 PM)
Low29 °F (Dec 12, 7:00 AM)31% (Dec 12, 10:00 PM)29.82 "Hg (Dec 12, 10:00 PM)
Average42 °F80%30.17 "Hg
* Reported Dec 6 7:00 PM — Dec 21 7:00 PM, Altdorf, Weather by CustomWeather, © 2014

Note: Actual official high and low records may vary slightly from our data, if they occured in-between our weather recording intervals... More about our weather records

Advertising

Altdorf weather history for previous 24 hours

 ConditionsComfort  
Time TempWeatherWind HumidityBarometerVisibility
7:00 PM
Dec 21
N/AOvercast.N/AN/AN/A12 mi
6:00 PM37 °FChilly.2 mph82%30.58 "HgN/A
5:00 PM37 °FChilly.2 mph83%30.58 "HgN/A
4:00 PM42 °FOvercast.2 mph69%30.56 "Hg12 mi
3:00 PM43 °FQuite cool.1 mph63%30.56 "HgN/A
2:00 PM43 °FQuite cool.3 mph71%30.56 "HgN/A
1:00 PM44 °FPassing clouds.6 mph68%30.58 "Hg19 mi
12:00 PM43 °FQuite cool.1 mph65%30.58 "HgN/A
11:00 AM42 °FQuite cool.2 mph71%30.60 "HgN/A
10:00 AM36 °FPassing clouds.1 mph84%30.62 "Hg19 mi
9:00 AM37 °FChilly.2 mph80%30.61 "HgN/A
8:00 AM36 °FChilly.5 mph82%30.60 "HgN/A
7:00 AM42 °FPassing clouds.3 mph66%30.58 "Hg16 mi
6:00 AM44 °FQuite cool.6 mph58%30.56 "HgN/A
5:00 AM44 °FQuite cool.1 mph58%30.56 "HgN/A
4:00 AM44 °FPassing clouds.8 mph56%30.55 "Hg16 mi
3:00 AM44 °FQuite cool.13 mph60%30.52 "HgN/A
2:00 AM42 °FQuite cool.3 mph71%30.51 "HgN/A
1:00 AM42 °FOvercast.1 mph67%30.52 "Hg12 mi
12:00 AM44 °FQuite cool.3 mph56%30.50 "HgN/A
11:00 PM
Dec 20
44 °FQuite cool.17 mph55%30.50 "HgN/A
Weather by CustomWeather, © 2014

See weather overviewHow to use our weather pages